Lansing, MI

11:30 PM EDT on May 24, 2018 (GMT -0400)
Capital City

Weather History for KLAN - October, 2012

Change the Weather History Date:

Thursday, October 11, 2012

  Actual Average Record
Temperature  
Mean Temperature 48 °F 52 °F  
Max Temperature 62 °F 62 °F 84 °F (1879)
Min Temperature 33 °F 42 °F 19 °F (1906)
Degree Days  
Heating Degree Days 17 13  
Month to date heating degree days 159 128  
Since 1 July heating degree days 324 316  
Cooling Degree Days 0 0  
Month to date cooling degree days 1 4  
Year to date cooling degree days 936 622  
Moisture  
Dew Point 32 °F    
Average Humidity 61    
Maximum Humidity 89    
Minimum Humidity 32    
Precipitation  
Precipitation 0.05 in 0.08 in 1.22 in (1897)
Month to date precipitation 0.53 0.96  
Year to date precipitation 22.12 25.55  
Snow  
Snow 0.00 in 0.00 in T in (2006)
Month to date snowfall T 0.1  
Since 1 July snowfall T 0.1  
Since 1 September snowfall T 0.1  
Snow Depth 0.00 in    
Sea Level Pressure  
Sea Level Pressure 30.12 in    
Wind  
Wind Speed 12 mph (WSW)    
Max Wind Speed 30 mph    
Max Gust Speed 39 mph    
Visibility 10 miles    
Events Rain    
T = Trace of Precipitation, MM = Missing Value Source: NWS Daily Summary

Daily Weather History Graph

Daily Weather History Graph

Search for Another Location

Airport or City:

Astronomy

Oct. 11, 2012 Rise Set
Actual Time 7:47 AM EDT 7:01 PM EDT
Civil Twilight 7:19 AM EDT 7:30 PM EDT
Nautical Twilight 6:46 AM EDT 8:02 PM EDT
Astronomical Twilight 6:13 AM EDT 8:35 PM EDT
Moon 3:19 AM EDT (10/11) 4:42 PM EDT (10/11)
Length of Visible Light 12h 10m
Length of Day
11h 14m
Waning Crescent, 18% of the Moon is Illuminated
Oct 11
Waning Crescent
Oct 15
New
Oct 21
First Quarter
Oct 29
Full
Nov 6
Last Quarter

Hourly Weather History & Observations

Time (EDT) Temp. Windchill Dew Point Humidity Pressure Visibility Wind Dir Wind Speed Gust Speed Precip Events Conditions
12:53 AM 34.0 °F 31.0 °F 28.0 °F 79% 30.18 in 10.0 mi SSW 3.5 mph - N/A   Partly Cloudy
1:53 AM 35.1 °F 32.2 °F 28.0 °F 76% 30.18 in 10.0 mi South 3.5 mph - N/A   Clear
2:53 AM 33.1 °F - 28.0 °F 82% 30.18 in 10.0 mi Calm Calm - N/A   Partly Cloudy
3:53 AM 33.1 °F - 28.0 °F 82% 30.17 in 10.0 mi Calm Calm - N/A   Partly Cloudy
4:53 AM 34.0 °F - 28.9 °F 82% 30.16 in 10.0 mi Calm Calm - N/A   Clear
5:53 AM 34.0 °F 27.2 °F 28.9 °F 82% 30.17 in 10.0 mi SSW 8.1 mph - N/A   Partly Cloudy
6:53 AM 34.0 °F 27.2 °F 28.9 °F 82% 30.17 in 10.0 mi SSW 8.1 mph - N/A   Partly Cloudy
7:53 AM 35.1 °F 27.9 °F 28.9 °F 78% 30.16 in 10.0 mi South 9.2 mph - N/A   Scattered Clouds
8:53 AM 39.0 °F 32.3 °F 28.9 °F 67% 30.14 in 10.0 mi SSW 10.4 mph 19.6 mph N/A   Scattered Clouds
9:53 AM 45.0 °F 37.4 °F 30.0 °F 56% 30.14 in 10.0 mi SSW 18.4 mph 24.2 mph N/A   Partly Cloudy
10:53 AM 50.0 °F - 30.9 °F 48% 30.12 in 10.0 mi SW 20.7 mph 28.8 mph N/A   Partly Cloudy
11:53 AM 54.0 °F - 30.9 °F 41% 30.10 in 10.0 mi SW 18.4 mph 28.8 mph N/A   Mostly Cloudy
12:53 PM 55.9 °F - 30.9 °F 39% 30.07 in 10.0 mi WSW 25.3 mph 34.5 mph N/A   Mostly Cloudy
1:53 PM 59.0 °F - 32.0 °F 36% 30.03 in 10.0 mi SW 23.0 mph 39.1 mph N/A   Partly Cloudy
2:53 PM 61.0 °F - 32.0 °F 34% 30.03 in 10.0 mi SW 21.9 mph 33.4 mph N/A   Partly Cloudy
3:53 PM 62.1 °F - 32.0 °F 32% 30.02 in 10.0 mi SW 21.9 mph 33.4 mph N/A   Scattered Clouds
4:53 PM 61.0 °F - 30.9 °F 32% 30.03 in 10.0 mi West 23.0 mph 34.5 mph N/A   Mostly Cloudy
5:53 PM 60.8 °F - 32.0 °F 34% 30.03 in 10.0 mi West 26.5 mph 34.5 mph N/A   Mostly Cloudy
6:53 PM 57.9 °F - 34.0 °F 41% 30.06 in 10.0 mi West 13.8 mph 31.1 mph N/A   Mostly Cloudy
7:22 PM 51.8 °F - 39.2 °F 62% 30.06 in 10.0 mi NNW 12.7 mph - N/A   Mostly Cloudy
7:53 PM 51.1 °F - 39.0 °F 63% 30.10 in 10.0 mi NNW 6.9 mph - N/A   Overcast
8:53 PM 48.2 °F - 39.2 °F 71% 30.12 in 10.0 mi North 12.7 mph 19.6 mph N/A Rain Light Rain
9:53 PM 45.0 °F 40.1 °F 39.9 °F 82% 30.17 in 10.0 mi NNW 9.2 mph - 0.00 in Rain Light Rain
11:53 PM 43.0 °F 41.3 °F 37.9 °F 82% 30.21 in 10.0 mi North 3.5 mph - 0.01 in Rain Light Rain